Location: Agny
(50.2591°N, 2.7600°E)
Time: 01:52:15
(UTC+00:00)

Daily predictions for brighter satellites

Satellite Brightness Start Highest point End
(mag) Time Altitude Azimuth Time Altitude Azimuth Time Altitude Azimuth
Cosmos 2082 Rocket 4.2 03:17:01 22° NNE 03:17:01 22° NNE 03:18:54 10° NNE
ATLAS CENTAUR R/B 3.7 03:32:02 26° E 03:32:02 26° E 03:34:54 10° ENE
ATLAS 2AS CENTAUR R/B 3.0 03:33:17 66° SE 03:33:17 66° SE 03:39:14 10° SE
Cosmos 2360 Rocket 3.2 03:35:55 42° NE 03:35:55 42° NE 03:41:14 10° ESE
Lacrosse 5 3.4 03:45:45 31° NE 03:45:45 31° NE 03:48:32 10° ENE
SL-16 R/B 3.7 03:47:32 27° SSE 03:47:32 27° SSE 03:49:58 10° SSE
Cosmos 839 Rocket 4.4 03:49:51 54° NNE 03:49:51 54° NNE 03:54:38 10° NE
Cosmos 2322 Rocket 3.2 03:52:05 37° SSE 03:52:05 37° SSE 03:55:24 10° SSE
USA 234 3.4 03:51:10 10° ENE 03:57:32 57° NNW 03:57:32 57° NNW
Cosmos 1937 Rocket 4.4 04:06:41 40° NNE 04:06:41 40° NNE 04:09:58 10° NNE
CZ-2C R/B 2.9 04:01:27 10° NNE 04:06:12 54° E 04:06:29 53° ESE
H-2A R/B 3.8 04:15:05 10° NNE 04:17:44 35° NNE 04:17:44 35° NNE
STARLINK-66 4.5 04:22:25 48° E 04:22:25 48° E 04:25:40 10° ENE
Cosmos 1606 4.4 04:21:21 27° NE 04:22:28 33° ENE 04:25:56 10° SE
STARLINK-41 4.4 04:23:58 50° ESE 04:23:58 50° ESE 04:27:17 10° ENE
Cosmos 2219 Rocket 3.5 04:20:31 20° N 04:23:55 37° NE 04:29:09 10° ESE
STARLINK-64 4.3 04:25:34 52° ESE 04:25:34 52° ESE 04:28:56 10° ENE
Cosmos 2322 4.2 04:22:46 31° N 04:25:22 57° NE 04:30:56 10° SE
STARLINK-70 4.3 04:27:11 54° ESE 04:27:11 54° ESE 04:30:38 10° ENE
PAYLOAD A 4.0 04:21:36 10° NNE 04:27:02 85° WNW 04:28:30 51° SSW
Cosmos 1825 3.4 04:24:18 10° SSE 04:27:51 41° E 04:31:25 10° NNE
STARLINK-68 4.2 04:28:55 57° ESE 04:28:55 57° ESE 04:32:25 10° ENE
STARLINK-58 4.1 04:30:24 59° ESE 04:30:24 59° ESE 04:33:58 10° ENE
STARLINK-62 4.0 04:32:05 61° ESE 04:32:05 61° ESE 04:35:42 10° ENE
CZ-4C R/B 3.9 04:30:07 23° NNW 04:31:54 26° N 04:37:46 10° ENE
Cosmos 1459 Rocket 3.9 04:26:26 10° S 04:32:40 87° W 04:39:04 10° N
Cosmos 372 Rocket 4.1 04:30:00 25° S 04:32:59 70° ESE 04:38:06 10° NNE
STARLINK-63 3.9 04:33:37 63° ESE 04:33:37 63° ESE 04:37:20 10° ENE
STARLINK 3.9 04:34:56 64° ESE 04:34:56 64° ESE 04:38:44 10° ENE
STARLINK-72 3.8 04:36:41 68° ESE 04:36:41 68° ESE 04:40:32 10° ENE
Cosmos 2333 Rocket 3.1 04:33:01 19° NNW 04:36:53 46° NE 04:42:25 10° SE
RESURS DK-1 4.5 04:36:48 17° N 04:38:41 23° NE 04:42:01 10° E
Cosmos 1408 Rocket 3.6 04:35:09 10° S 04:39:27 75° E 04:43:50 10° NNE
Cosmos 2150 Rocket 4.1 04:35:47 20° SSW 04:39:39 81° ESE 04:45:04 10° NNE
STARLINK-59 3.7 04:39:57 73° SE 04:39:57 73° SE 04:43:56 10° ENE
STARLINK-57 3.6 04:41:34 76° SE 04:41:34 76° SE 04:45:37 10° ENE
NOSS 3-4 (A) 3.9 04:41:26 45° W 04:43:05 54° WSW 04:50:29 10° SSE
NOSS 3-4 (C) 3.9 04:41:31 45° W 04:43:12 54° WSW 04:50:35 10° SSE
Lacrosse 5 rocket 1.4 04:45:14 61° ESE 04:45:14 61° ESE 04:48:14 10° ESE
STARLINK-28 3.5 04:44:47 79° SSE 04:44:48 79° SSE 04:48:58 10° ENE
STARLINK-75 3.5 04:46:02 85° SSE 04:46:02 85° SSE 04:50:12 10° ENE
Cosmos 1933 3.4 04:45:57 43° N 04:47:11 73° E 04:51:11 10° SSE
STARLINK-53 3.5 04:47:19 80° S 04:47:26 81° SSE 04:51:37 10° ENE
STARLINK-54 3.5 04:47:59 80° SSW 04:48:07 82° SSE 04:52:17 10° ENE
BREEZE-M DEB (TANK) 4.3 04:43:40 33° W 04:48:22 53° SW 04:52:50 10° SE
Cosmos 2016 Rocket 4.0 04:42:19 10° S 04:48:38 87° E 04:55:03 10° N
Meteor 1-31 Rocket 3.8 04:44:55 10° N 04:47:14 35° N 04:47:14 35° N
In-Cosmos 22 Rocket 4.2 04:49:06 51° W 04:49:28 52° WNW 04:54:58 10° N
Cosmos 1725 Rocket 4.2 04:43:43 10° S 04:49:58 73° E 04:56:17 10° NNE
COSMOS 2487 3.9 04:53:20 28° NNE 04:53:20 28° NNE 04:55:06 10° NNE
STARLINK-37 3.4 04:51:49 77° SW 04:52:06 86° SSE 04:56:15 10° ENE
STARLINK-55 3.5 04:52:39 74° SW 04:53:00 85° SSE 04:57:10 10° ENE
Cosmos 1484 Rocket 3.3 04:49:07 10° NNE 04:53:07 62° E 04:57:05 10° S
SJ 16-02 3.4 04:56:25 15° N 04:56:25 15° N 04:57:30 10° N
NOSS 3-3 (A) 4.3 04:52:49 41° WNW 04:54:18 48° NNW 05:01:03 10° NE
NOSS 3-3 (C) 4.3 04:52:55 41° WNW 04:54:24 48° NNW 05:01:10 10° NE
STARLINK-34 3.5 04:54:22 72° WSW 04:54:46 87° SSE 04:58:56 10° ENE
ALOS 3.5 04:51:13 10° NNE 04:55:40 42° E 05:00:07 10° S
STARLINK-81 3.5 04:55:45 68° SW 04:56:15 85° SSE 05:00:25 10° ENE
STARLINK-24 3.5 04:56:28 68° WSW 04:56:58 89° SSE 05:01:09 10° ENE
Cosmos 2082 Rocket 3.6 04:58:54 21° NNW 04:58:54 21° NNW 05:02:29 10° NNE
MSX 4.1 04:53:31 10° N 04:58:55 43° WNW 04:59:57 39° W
STARLINK-77 3.5 04:58:55 63° WSW 04:59:33 87° SSE 05:03:44 10° ENE
Meteor PRIRODA 3.5 04:56:08 10° NNE 04:59:50 89° W 05:03:28 10° SSW
SL-16 R/B 4.4 04:57:02 10° N 05:00:53 18° NNE 05:04:43 10° ENE
STARLINK-25 3.5 05:00:30 61° WSW 05:01:12 89° S 05:05:24 10° ENE
Cosmos 1833 Rocket 4.4 05:02:48 16° NNW 05:02:48 16° NNW 05:05:39 10° N
COSMOS 2455 4.4 05:04:44 18° SW 05:04:44 18° SW 05:07:05 10° SSW
COBE Rocket 4.0 04:57:39 10° S 05:02:37 53° W 05:04:53 30° NW
STARLINK-71 3.5 05:02:22 60° WSW 05:03:05 87° NNW 05:07:16 10° ENE
STARLINK-79 3.5 05:03:43 57° WSW 05:04:32 89° NNW 05:08:43 10° ENE
STARLINK-78 3.5 05:05:20 54° WSW 05:06:13 87° NNW 05:10:24 10° ENE
SL-4 R/B 4.0 05:07:00 20° SW 05:07:00 20° SW 05:10:11 10° S
Cosmos 1782 4.0 05:02:57 10° N 05:06:47 43° ENE 05:10:35 10° SSE
Cosmos 1816 Rocket 4.4 05:00:46 10° NNW 05:07:05 76° W 05:13:17 10° S
IDEFIX/ARIANE 42P 4.1 05:03:42 10° N 05:05:40 19° NNW 05:05:40 19° NNW
Cosmos 1048 Rocket 4.2 05:07:23 34° NW 05:09:19 50° WSW 05:14:27 10° S
STARLINK-49 3.5 05:08:29 50° WSW 05:09:31 85° NNW 05:13:41 10° ENE
ATLAS CENTAUR R/B 1.8 05:08:16 42° W 05:09:34 55° NW 05:14:12 10° NE
STARLINK-27 3.5 05:10:07 48° WSW 05:11:13 84° NNW 05:15:22 10° ENE
COSMO-SKYMED 1 2.5 05:08:33 10° S 05:12:52 64° WSW 05:15:48 20° NNW
STARLINK-74 3.5 05:11:43 47° WSW 05:12:52 83° NNW 05:17:02 10° ENE
USA 116 3.5 05:09:32 10° SSE 05:13:00 85° ENE 05:16:20 14° NNW
STARLINK-60 2.9 05:13:00 68° WNW 05:13:22 88° NNE 05:16:45 10° ESE
STARLINK-39 3.5 05:13:18 45° W 05:14:31 82° NNW 05:18:41 10° ENE
Cosmos 2100 Rocket 4.2 05:09:24 10° SW 05:15:14 43° WNW 05:21:05 10° N
BREEZE-M DEB (TANK) 3.9 05:15:55 23° SSW 05:15:55 23° SSW 05:18:07 10° SSE
STARLINK 3.5 05:14:55 43° W 05:16:12 81° NNW 05:20:22 10° ENE
Cosmos 1238 Rocket 4.0 05:10:00 10° S 05:16:19 77° E 05:21:48 10° NNE
STARLINK-42 3.5 05:15:57 42° W 05:17:15 79° NNW 05:21:25 10° ENE
Meteor 1-26 Rocket 4.1 05:11:43 10° NNW 05:17:27 83° W 05:22:59 10° S
SL-08 R/B 4.3 05:11:36 10° SSW 05:17:39 70° WNW 05:23:45 10° N
STARLINK-80 3.7 05:16:51 43° NW 05:17:43 55° N 05:21:30 10° ENE
Tsikada Rocket 4.0 05:11:28 10° NNW 05:17:49 68° W 05:24:04 10° S
STARLINK-43 3.6 05:18:29 42° NW 05:19:23 55° N 05:23:03 10° E
STARLINK-21 3.5 05:18:07 40° W 05:19:32 79° NNW 05:23:42 10° ENE
Cosmos 2360 Rocket 2.6 05:17:44 29° WNW 05:19:52 41° WSW 05:25:07 10° S
STARLINK-45 3.5 05:20:01 39° W 05:21:27 75° NNW 05:25:36 10° ENE
Cosmos 1400 Rocket 2.7 05:18:50 19° NNW 05:21:41 67° W 05:25:38 10° S
Abrixas rocket 2.3 05:21:33 46° SW 05:22:06 56° S 05:25:04 10° E
ATLAS 2AS CENTAUR R/B 3.7 05:20:47 25° W 05:22:09 26° WSW 05:27:46 10° SSW
Cosmos 2298 Rocket 4.3 05:19:23 20° SW 05:22:48 46° WNW 05:27:56 10° NNE
STARLINK-76 3.5 05:22:55 36° W 05:24:33 76° NNW 05:28:42 10° ENE
STARLINK 3.5 05:24:31 35° W 05:26:11 75° NNW 05:30:21 10° ENE
Cosmos 2237 Rocket 3.2 05:21:18 10° NNW 05:26:44 43° NE 05:32:07 10° ESE
Lacrosse 5 2.7 05:24:57 25° NW 05:27:18 39° N 05:32:03 10° ENE
STARLINK-61 3.6 05:25:55 36° W 05:27:24 64° N 05:31:26 10° ENE
SL-16 R/B 3.9 05:29:28 14° WSW 05:29:28 14° WSW 05:31:02 10° SW
SOZ 4.2 05:26:24 33° W 05:27:49 77° NNW 05:30:06 10° ENE
STARLINK-32 3.6 05:26:06 33° W 05:27:51 74° NNW 05:32:00 10° ENE
ADEOS Rocket 4.5 05:20:42 10° SE 05:27:52 47° ENE 05:34:33 10° N
COSMOS 2428 2.7 05:23:45 13° NNW 05:28:54 89° WSW 05:34:39 10° SSE
STARLINK-40 3.6 05:27:43 32° W 05:29:32 73° NNW 05:33:41 10° ENE
Cosmos 1151 Rocket 4.2 05:31:47 24° WSW 05:31:47 24° WSW 05:34:26 10° SW
STARLINK-44 3.6 05:29:18 31° W 05:31:11 73° NNW 05:35:20 10° ENE
Gbstr 26 Del rocket 2.6 05:30:02 34° WNW 05:31:31 69° N 05:35:16 10° E
METEOR-M 4.2 05:26:17 10° NNE 05:31:40 85° ESE 05:37:01 10° SSW
Cosmos 1833 4.1 05:26:52 10° SW 05:32:29 73° WNW 05:38:09 10° NNE
STARLINK-36 3.6 05:30:55 30° W 05:32:53 72° NNW 05:37:02 10° ENE
Cosmos 2322 Rocket 3.7 05:33:59 17° WSW 05:33:59 17° WSW 05:36:39 10° SW
STARLINK-26 3.6 05:33:13 29° W 05:35:09 67° NNW 05:39:16 10° ENE
Cosmos 1802 Rocket 4.4 05:32:07 10° SW 05:38:06 40° WNW 05:44:04 10° N
STARLINK-35 3.6 05:37:16 26° W 05:39:30 69° NNW 05:43:38 10° ENE
USA 234 3.7 05:33:46 10° E 05:40:03 51° N 05:44:53 18° WNW
STARLINK-51 3.6 05:38:53 25° W 05:41:10 68° NNW 05:45:19 10° ENE
STARLINK-30 3.6 05:40:30 24° W 05:42:52 68° NNW 05:47:00 10° ENE
Cosmos 494 Rocket 4.3 05:38:48 14° NW 05:43:00 46° WSW 05:47:56 10° S
CZ-2C R/B 3.4 05:40:17 10° N 05:44:06 24° WNW 05:45:51 19° W
Helios 1A Rocket 2.8 05:40:04 10° NNE 05:44:12 86° W 05:48:15 10° SSW
STARLINK-33 3.6 05:42:05 23° W 05:44:31 67° NNW 05:48:40 10° ENE
STARLINK-52 3.1 05:44:10 26° WNW 05:46:00 85° SSW 05:49:31 10° ESE
STARLINK-50 3.7 05:43:42 23° W 05:46:13 66° NNW 05:50:21 10° ENE
FENGYUN 3A 3.6 05:40:47 10° NNE 05:46:14 79° WNW 05:51:38 10° SSW
PSLV R/B 4.3 05:42:51 10° N 05:46:27 36° WNW 05:50:06 10° SW
STARLINK-56 3.7 05:46:53 21° W 05:49:32 65° N 05:53:40 10° ENE
Starlink (trailer) 3.7 05:48:26 20° W 05:51:10 65° N 05:55:18 10° ENE
CZ-4B R/B 4.2 05:48:45 10° NNW 05:50:31 18° NW 05:50:31 18° NW
STARLINK-38 3.7 05:50:05 20° W 05:52:51 64° N 05:56:59 10° ENE
Cosmos 1980 4.1 05:47:26 10° NNW 05:53:06 66° ENE 05:58:44 10° SE
Cosmos 2233 Rocket 4.0 05:47:35 10° SSW 05:53:50 64° WNW 06:00:09 10° N
H-2A R/B 4.2 05:51:45 10° NNW 05:54:17 16° NW 05:54:17 16° NW
STARLINK-65 3.7 05:51:41 19° W 05:54:32 64° N 05:58:40 10° ENE
Okean O Rocket 1.5 05:52:16 10° N 05:56:36 67° WNW 06:00:55 10° SSW
Cosmos 1707 Rocket 3.6 05:52:21 10° N 05:56:52 89° E 06:01:20 10° S
Cosmos 1606 3.9 05:56:26 17° NW 05:58:02 22° W 06:01:02 10° SW
STARLINK-29 3.2 05:55:48 20° WNW 05:58:03 68° SSW 06:01:31 10° ESE
Cosmos 1269 Rocket 4.5 05:53:14 10° NW 05:58:11 41° WSW 06:03:06 10° S
Cosmos 2228 Rocket 3.9 05:54:11 10° NNW 05:58:14 31° W 06:02:16 10° SSW
STARLINK-69 3.7 05:56:30 17° W 05:59:33 62° N 06:03:40 10° ENE
Cosmos 1437 4.3 06:01:23 16° NW 06:01:23 16° NW 06:02:46 10° NNW
STARLINK-66 3.7 05:58:06 17° W 06:01:13 62° N 06:05:20 10° ENE
FALCON 9 DEB 3.3 05:58:58 19° WNW 06:01:15 60° SSW 06:04:38 10° SE
Timation 2 Rocket 3.9 05:55:38 10° SSW 06:01:39 90° SSE 06:07:41 10° NNE
Cosmos 1805 Rocket 3.4 05:58:17 10° SSW 06:02:36 74° W 06:06:58 10° N
STARLINK-41 3.7 05:59:38 16° W 06:02:50 61° N 06:06:57 10° ENE
Meteor 1-10 Rocket 4.3 05:57:20 10° NNW 06:02:59 89° ENE 06:08:42 10° S
Cosmos 1825 3.5 06:00:52 10° WSW 06:03:35 19° WNW 06:06:18 10° NNW
Cosmos 1743 Rocket 4.2 06:00:07 10° SW 06:03:58 31° WNW 06:07:52 10° N
STARLINK-48 3.7 06:01:17 17° WNW 06:04:10 57° N 06:08:01 10° E
STARLINK-64 3.7 06:01:14 16° W 06:04:30 61° N 06:08:37 10° ENE
SJ-7 4.4 06:00:49 10° NNE 06:05:00 79° WNW 06:09:05 10° SSW
Exosat Rocket 4.3 06:00:18 10° NW 06:05:43 53° WSW 06:12:58 10° S
STARLINK-70 3.8 06:02:51 15° W 06:06:12 61° N 06:10:19 10° ENE
STARLINK-68 3.8 06:04:36 15° W 06:07:59 60° N 06:12:06 10° ENE
Cosmos 2219 Rocket 2.5 06:02:36 10° NW 06:08:02 48° WSW 06:13:27 10° S
STARLINK-58 3.8 06:06:04 14° W 06:09:33 60° N 06:13:40 10° ENE
Cosmos 1125 Rocket 4.0 06:05:38 10° SW 06:10:33 38° NW 06:15:27 10° NNE
CZ-4B R/B 3.2 06:05:45 10° N 06:11:07 63° WNW 06:16:33 10° SSW
STARLINK-62 3.8 06:07:45 14° W 06:11:17 59° N 06:15:23 10° ENE
Cosmos 2251 Rocket 3.6 06:06:25 10° NNW 06:11:44 85° ENE 06:16:59 10° SSE
STARLINK-63 3.8 06:09:17 13° W 06:12:54 60° N 06:17:01 10° ENE
CZ-4 R/B 4.3 06:10:10 10° NE 06:13:00 19° E 06:15:47 10° SE
Meteor 2-3 Rocket 4.1 06:07:58 10° SW 06:13:29 45° WNW 06:19:04 10° N
STARLINK 3.8 06:10:36 12° W 06:14:19 60° N 06:18:25 10° ENE
STARLINK-72 3.8 06:12:21 12° W 06:16:07 59° N 06:20:14 10° ENE
Cosmos 2219 4.2 06:11:27 10° S 06:16:55 52° ESE 06:22:22 10° NE
Cosmos 1812 3.3 06:13:04 10° N 06:16:56 62° ENE 06:20:46 10° SSE
RESURS DK-1 2.5 06:12:57 10° NW 06:17:01 55° WSW 06:21:03 10° SSE
BREEZE-M DEB (TANK) 1.5 06:16:28 13° W 06:18:16 52° SSW 06:20:28 10° ESE
STARLINK-59 3.8 06:15:38 11° W 06:19:31 59° N 06:23:38 10° ENE
Cosmos 1174 4.5 06:17:00 10° NNW 06:20:01 34° NE 06:22:48 10° ESE
Cosmos 2333 Rocket 2.8 06:15:49 10° NW 06:21:06 38° WSW 06:26:21 10° S
STARLINK-57 3.8 06:17:14 11° W 06:21:13 58° N 06:25:19 10° ENE
CZ-4C R/B 3.7 06:15:55 10° NW 06:22:12 41° NNE 06:29:29 10° E
Lacrosse 5 rocket 2.8 06:20:54 10° W 06:23:20 17° SW 06:25:47 10° S
STARLINK-28 3.8 06:20:28 10° W 06:24:35 58° N 06:28:40 10° ENE
STARLINK-75 3.8 06:21:43 10° W 06:25:49 58° N 06:29:55 10° ENE
Cosmos 2297 Rocket 3.7 06:20:35 10° S 06:25:50 41° ESE 06:31:07 10° NE
Cosmos 2227 Rocket 3.9 06:21:42 10° S 06:26:56 40° ESE 06:32:12 10° NE
Cosmos 1464 Rocket 4.0 06:20:40 10° S 06:26:58 84° W 06:33:15 10° N
Cosmos 1633 Rocket 3.1 06:22:41 10° S 06:27:02 89° E 06:31:27 10° N
Cosmos 1315 Rocket 3.6 06:23:24 10° NNW 06:27:04 33° W 06:30:45 10° SSW
Cosmos 1484 Rocket 4.4 06:24:33 10° NNW 06:27:06 16° WNW 06:29:39 10° W
STARLINK-53 3.8 06:23:08 10° W 06:27:15 58° N 06:31:22 10° ENE
STARLINK-54 3.8 06:23:48 10° W 06:27:54 58° N 06:32:00 10° ENE
Sich 1 3.1 06:24:27 10° SSW 06:28:37 55° WNW 06:32:52 10° N
NOAA 6 4.4 06:24:44 10° N 06:29:34 43° WNW 06:34:22 10° SW
YAOGAN 6 4.5 06:27:05 10° NNE 06:30:24 35° E 06:33:45 10° SSE
AQUARIUS 4.2 06:26:42 10° NNE 06:31:14 89° WNW 06:35:44 10° SSW
STARLINK-37 3.8 06:27:46 10° W 06:31:52 58° N 06:35:58 10° ENE
Aureole 1 Rocket 3.2 06:28:49 10° NNW 06:32:28 68° ENE 06:37:11 10° SSE
STARLINK-55 3.8 06:28:41 10° W 06:32:47 58° N 06:36:54 10° ENE
ALOS 3.1 06:28:58 10° N 06:32:57 28° WNW 06:36:55 10° WSW
Cosmos 1633 2.7 06:30:40 10° SSW 06:34:11 50° WNW 06:37:46 10° N
STARLINK-34 3.9 06:30:28 10° W 06:34:34 57° N 06:38:40 10° E
STARLINK-81 3.9 06:31:56 10° W 06:36:03 58° N 06:40:09 10° ENE
SMAP 3.0 06:31:34 10° NNE 06:36:14 77° WNW 06:40:52 10° SSW
H-2A R/B 2.6 06:33:01 10° N 06:36:43 67° WNW 06:40:23 10° SSW
STARLINK-24 3.9 06:32:42 10° W 06:36:49 58° N 06:40:55 10° E
Meteor 1-27 Rocket 3.9 06:32:29 10° NNW 06:38:21 79° W 06:44:17 10° S
STARLINK-77 3.9 06:35:15 10° W 06:39:22 57° N 06:43:28 10° E
Cosmos 1072 Rocket 4.5 06:33:20 10° SSW 06:39:25 64° WNW 06:45:31 10° N
STARLINK-25 3.9 06:36:55 10° W 06:41:02 57° N 06:45:09 10° E
CZ-2C R/B 4.1 06:37:07 10° SE 06:42:06 37° ENE 06:47:00 10° N
